EW5738 Weather Reports


time (UTC)temp
C
wind
direction
speed
KPH
gust
KPH
rain 1hr
cm
rain 24hr
cm
rain mn
cm
humidity
%
barometer
mb
20260505013056 24 120 3.2 11.3 0.00 0.03 0.03 77 1017.1
20260505011554 23 39 1.6 9.7 0.00 0.03 0.03 76 1017.4
20260505010109 24 196 4.8 11.3 0.00 0.03 0.03 77 1017.8
20260505004548 23 135 4.8 8.0 0.00 0.03 0.03 80 1018.0
20260505003047 23 185 6.4 11.3 0.00 0.03 0.03 80 1018.1
20260505001542 23 178 1.6 12.9 0.00 0.03 0.03 79 1018.3
20260505000044 23 128 4.8 14.5 0.00 0.03 0.03 83 1018.4
20260504234533 22 336 3.2 6.4 0.00 0.03 0.03 85 1018.4
20260504233031 22 135 3.2 11.3 0.00 0.03 0.03 87 1018.6
20260504231526 21 111 6.4 11.3 0.00 0.03 0.03 93 1018.7
20260504230036 20 186 4.8 11.3 0.00 0.03 0.03 96 1018.7
20260504224522 19 152 4.8 12.9 0.00 0.03 0.03 96 1018.7
20260504223016 19 152 3.2 6.4 0.00 0.03 0.03 96 1018.7
20260504221534 18 46 0.0 4.8 0.03 0.03 0.03 96 1018.7
20260504220012 18 89 0.0 3.2 0.03 0.03 0.03 96 1018.6
20260504214511 18 187 1.6 4.8 0.03 0.05 0.03 96 1018.6
20260504213009 17 135 0.0 3.2 0.03 0.05 0.03 96 1018.5
20260504211508 17 135 1.6 4.8 0.00 0.05 0.00 96 1018.4
20260504210006 17 135 0.0 3.2 0.00 0.05 0.00 95 1018.3
20260504204502 17 145 1.6 4.8 0.00 0.05 0.00 95 1018.0
20260504203001 17 178 0.0 4.8 0.00 0.05 0.00 95 1017.9
20260504201559 17 295 1.6 4.8 0.00 0.05 0.00 95 1018.0
20260504194600 17 276 3.2 4.8 0.00 0.05 0.00 95 1017.5
20260504193102 17 173 1.6 4.8 0.00 0.05 0.00 95 1017.4
20260504191601 17 310 1.6 4.8 0.00 0.05 0.00 95 1017.2
20260504190054 17 178 0.0 3.2 0.00 0.05 0.00 95 1017.2
20260504184553 17 306 1.6 4.8 0.00 0.05 0.00 95 1017.1
20260504183051 18 308 0.0 4.8 0.00 0.05 0.00 95 1017.1
20260504181551 18 223 3.2 6.4 0.00 0.05 0.00 95 1017.1
20260504180050 18 46 0.0 6.4 0.00 0.05 0.00 95 1016.8
20260504174547 18 269 1.6 4.8 0.00 0.05 0.00 95 1016.8
20260504173046 18 269 3.2 4.8 0.00 0.05 0.00 95 1016.9
20260504171544 18 283 3.2 8.0 0.00 0.05 0.00 95 1017.0
20260504100122 21 170 3.2 6.4 0.00 0.05 0.05 87 1018.9
20260504081505 22 102 1.6 11.3 0.00 0.05 0.05 84 1017.9
20260504044551 25 15 1.6 8.0 0.00 0.05 0.05 70 1016.7
20260504043054 25 340 3.2 8.0 0.00 0.05 0.05 69 1016.6
20260504041549 25 269 1.6 6.4 0.00 0.05 0.05 68 1016.7
20260504040107 25 129 3.2 9.7 0.00 0.05 0.05 70 1016.8
20260504034546 25 122 1.6 11.3 0.00 0.05 0.05 69 1016.8
20260504033043 25 334 1.6 8.0 0.00 0.05 0.05 72 1016.9
20260504031542 25 286 3.2 8.0 0.00 0.05 0.05 69 1017.0
20260504030039 25 135 1.6 14.5 0.00 0.05 0.05 69 1017.3
20260504024536 25 223 0.0 9.7 0.00 0.05 0.05 69 1017.5
20260504023034 26 147 3.2 14.5 0.00 0.05 0.05 68 1017.7
20260504021530 25 13 3.2 12.9 0.00 0.05 0.05 70 1017.9
20260504020027 25 167 6.4 12.9 0.00 0.05 0.05 70 1018.2
20260504014526 25 178 3.2 16.1 0.00 0.05 0.05 69 1018.4